Tracking 35331 objects as of 15-Sep-2026
HD Live streaming from Space Station
objects crossing your sky now

COSMOS 1186 DEB


COSMOS 1186 DEB is no longer on orbit


NORAD ID: 11913
Int'l Code: 1980-047E
Launch date: June 6, 1980
Source: Commonwealth of Independent States (former USSR) (CIS)
Launch site: PLESETSK MISSILE AND SPACE COMPLEX (PKMTR)
Decay date: 1980-09-14

Note: This is SATELLITE DEBRIS
Your satellite tracking list
Your tracking list is empty




NASA's NSSDC Master Catalog

Two Line Element Set (TLE):
1 11913U 80047  E 80255.90692786  .05798355 +00000-0 +17423-1 0  9991
2 11913 073.9975 219.4282 0025402 164.3141 197.8731 15.91513037014947
Source of the keplerian elements: AFSPC